QPF
0.00 0.01 0.01 0.01 0.01 0.02 0.04 0.05 0.05 0.06 0.08 0.09 0.12 0.15 0.16 0.16 0.14 0.14 0.16 0.21 0.24 0.29 0.31 0.31 0.32 0.33 0.30 0.27 0.21 0.15 0.11 0.08 0.07 0.07 0.05 0.05 0.04 0.05 0.05 0.07 0.09 0.10 0.08
0.00 0.00 0.00 0.00 0.00 0.01 0.01 0.02 0.02 0.04 0.05 0.06 0.07 0.10 0.11 0.12 0.12 0.12 0.14 0.17 0.20 0.26 0.29 0.26 0.27 0.28 0.25 0.25 0.21 0.16 0.13 0.10 0.08 0.07 0.07 0.06 0.05 0.04 0.04 0.05 0.07 0.09 0.10
0.00 0.00 0.00 0.01 0.00 0.00 0.01 0.02 0.03 0.04 0.07 0.06 0.06 0.05 0.06 0.06 0.06 0.05 0.06 0.07 0.11 0.17 0.21 0.20 0.20 0.17 0.18 0.18 0.15 0.13 0.12 0.10 0.07 0.06 0.07 0.07 0.06 0.04 0.04 0.06 0.08 0.09 0.11
0.00 0.00 0.00 0.00 0.00 0.00 0.00 0.00 0.01 0.01 0.02 0.03 0.03 0.03 0.03 0.04 0.05 0.04 0.03 0.02 0.04 0.08 0.14 0.16 0.15 0.12 0.11 0.14 0.12 0.07 0.06 0.06 0.06 0.05 0.06 0.05 0.05 0.04 0.04 0.06 0.08 0.09 0.09
0.00 0.00 0.00 0.00 0.00 0.00 0.00 0.00 0.00 0.00 0.01 0.01 0.02 0.02 0.02 0.02 0.02 0.03 0.02 0.02 0.02 0.04 0.07 0.09 0.09 0.08 0.08 0.09 0.08 0.06 0.04 0.03 0.04 0.04 0.04 0.04 0.04 0.03 0.04 0.05 0.07 0.08 0.07
0.00 0.00 0.00 0.00 0.00 0.00 0.00 0.00 0.00 0.00 0.00 0.00 0.01 0.01 0.01 0.02 0.02 0.02 0.01 0.01 0.02 0.03 0.04 0.06 0.06 0.05 0.05 0.05 0.05 0.05 0.04 0.03 0.03 0.03 0.03 0.03 0.04 0.03 0.05 0.05 0.05 0.05 0.08
0.00 0.00 0.00 0.00 0.00 0.00 0.00 0.00 0.00 0.00 0.00 0.00 0.00 0.00 0.01 0.02 0.03 0.02 0.01 0.01 0.03 0.04 0.03 0.02 0.04 0.05 0.05 0.05 0.04 0.04 0.03 0.03 0.03 0.02 0.02 0.02 0.02 0.03 0.04 0.04 0.04 0.04 0.05
0.00 0.00 0.00 0.00 0.00 0.00 0.00 0.00 0.00 0.00 0.00 0.00 0.00 0.00 0.00 0.01 0.02 0.02 0.02 0.02 0.02 0.04 0.05 0.04 0.03 0.03 0.06 0.07 0.06 0.05 0.04 0.03 0.03 0.04 0.04 0.04 0.03 0.03 0.04 0.06 0.07 0.07 0.08
0.00 0.00 0.00 0.00 0.00 0.00 0.00 0.00 0.00 0.00 0.00 0.00 0.00 0.01 0.01 0.01 0.01 0.01 0.01 0.01 0.01 0.02 0.03 0.04 0.04 0.04 0.06 0.09 0.10 0.07 0.05 0.04 0.05 0.05 0.05 0.05 0.05 0.04 0.04 0.04 0.06 0.07 0.06
0.00 0.00 0.00 0.00 0.00 0.00 0.00 0.00 0.00 0.00 0.00 0.00 0.00 0.01 0.02 0.01 0.01 0.02 0.01 0.01 0.03 0.03 0.03 0.03 0.04 0.07 0.08 0.09 0.10 0.09 0.06 0.05 0.04 0.04 0.05 0.06 0.06 0.06 0.06 0.05 0.06 0.06 0.04
0.00 0.00 0.00 0.00 0.00 0.00 0.00 0.00 0.00 0.00 0.00 0.00 0.00 0.02 0.02 0.02 0.02 0.02 0.02 0.02 0.03 0.04 0.03 0.03 0.04 0.08 0.10 0.10 0.11 0.10 0.09 0.07 0.05 0.04 0.05 0.05 0.05 0.05 0.05 0.04 0.05 0.05 0.04
0.00 0.00 0.00 0.00 0.00 0.00 0.00 0.00 0.00 0.00 0.00 0.00 0.00 0.01 0.02 0.02 0.02 0.02 0.02 0.03 0.04 0.05 0.04 0.04 0.06 0.09 0.11 0.10 0.09 0.10 0.11 0.08 0.05 0.04 0.04 0.04 0.04 0.03 0.03 0.03 0.04 0.03 0.03
0.00 0.00 0.00 0.00 0.00 0.00 0.00 0.00 0.00 0.00 0.00 0.00 0.00 0.00 0.01 0.01 0.01 0.02 0.02 0.03 0.05 0.05 0.04 0.05 0.08 0.09 0.10 0.10 0.11 0.11 0.10 0.08 0.05 0.04 0.05 0.05 0.04 0.03 0.02 0.02 0.03 0.02 0.01
0.00 0.00 0.00 0.00 0.00 0.00 0.00 0.00 0.00 0.00 0.00 0.00 0.00 0.00 0.00 0.00 0.00 0.01 0.01 0.01 0.02 0.02 0.03 0.04 0.07 0.09 0.10 0.09 0.10 0.11 0.09 0.08 0.06 0.05 0.05 0.05 0.03 0.02 0.01 0.01 0.02 0.01 0.01
0.00 0.00 0.00 0.00 0.00 0.00 0.00 0.00 0.00 0.00 0.00 0.00 0.00 0.00 0.00 0.00 0.00 0.00 0.01 0.01 0.01 0.02 0.02 0.04 0.06 0.08 0.09 0.08 0.08 0.07 0.05 0.04 0.03 0.02 0.05 0.06 0.02 0.01 0.01 0.01 0.01 0.00 0.00
0.00 0.00 0.00 0.00 0.00 0.00 0.00 0.00 0.00 0.00 0.00 0.00 0.00 0.00 0.00 0.00 0.00 0.00 0.01 0.01 0.01 0.01 0.02 0.03 0.04 0.06 0.06 0.05 0.05 0.04 0.03 0.02 0.01 0.01 0.04 0.05 0.02 0.01 0.00 0.00 0.00 0.00 0.00
0.00 0.00 0.00 0.00 0.00 0.00 0.00 0.00 0.00 0.00 0.00 0.00 0.00 0.00 0.00 0.00 0.00 0.00 0.00 0.00 0.00 0.00 0.01 0.01 0.02 0.03 0.03 0.03 0.02 0.02 0.02 0.01 0.01 0.01 0.02 0.02 0.01 0.00 0.00 0.00 0.00 0.00 0.00
0.00 0.00 0.00 0.00 0.00 0.00 0.00 0.00 0.00 0.00 0.00 0.00 0.00 0.00 0.00 0.00 0.00 0.00 0.00 0.00 0.00 0.00 0.00 0.00 0.01 0.01 0.01 0.01 0.01 0.01 0.01 0.01 0.01 0.00 0.00 0.00 0.01 0.00 0.00 0.00 0.00 0.00 0.00
0.00 0.00 0.00 0.00 0.00 0.00 0.00 0.00 0.00 0.00 0.00 0.00 0.00 0.00 0.00 0.00 0.00 0.00 0.00 0.00 0.00 0.00 0.00 0.00 0.00 0.00 0.00 0.00 0.01 0.01 0.01 0.00 0.00 0.00 0.00 0.00 0.01 0.00 0.00 0.00 0.00 0.00 0.00
0.00 0.00 0.00 0.00 0.00 0.00 0.00 0.00 0.00 0.00 0.00 0.00 0.00 0.00 0.00 0.00 0.00 0.00 0.00 0.00 0.00 0.00 0.00 0.00 0.00 0.00 0.00 0.00 0.00 0.00 0.00 0.00 0.00 0.00 0.00 0.00 0.00 0.00 0.00 0.00 0.00 0.00 0.00
0.00 0.00 0.00 0.00 0.00 0.00 0.00 0.00 0.00 0.00 0.00 0.00 0.00 0.00 0.00 0.00 0.00 0.00 0.00 0.00 0.00 0.00 0.00 0.00 0.00 0.00 0.00 0.00 0.00 0.00 0.00 0.00 0.00 0.00 0.00 0.00 0.00 0.00 0.00 0.00 0.00 0.00 0.00
0.00 0.00 0.00 0.00 0.00 0.00 0.00 0.00 0.00 0.00 0.00 0.00 0.00 0.00 0.00 0.00 0.00 0.00 0.00 0.00 0.00 0.00 0.00 0.00 0.00 0.00 0.00 0.00 0.00 0.00 0.00 0.00 0.00 0.00 0.00 0.00 0.00 0.00 0.00 0.00 0.00 0.00 0.00
0.00 0.00 0.00 0.00 0.00 0.00 0.00 0.00 0.00 0.00 0.00 0.00 0.00 0.00 0.00 0.00 0.00 0.00 0.00 0.00 0.00 0.00 0.00 0.00 0.00 0.00 0.00 0.00 0.00 0.00 0.00 0.00 0.00 0.00 0.00 0.00 0.00 0.00 0.00 0.00 0.00 0.00 0.00
0.00 0.00 0.00 0.00 0.00 0.00 0.00 0.00 0.00 0.00 0.00 0.00 0.00 0.00 0.00 0.00 0.00 0.00 0.00 0.00 0.00 0.00 0.00 0.00 0.00 0.00 0.00 0.00 0.00 0.00 0.00 0.00 0.00 0.00 0.00 0.00 0.00 0.00 0.00 0.00 0.00 0.00 0.00
0.00 0.00 0.00 0.00 0.00 0.00 0.00 0.00 0.00 0.00 0.00 0.00 0.00 0.00 0.00 0.00 0.00 0.00 0.00 0.00 0.00 0.00 0.00 0.00 0.00 0.00 0.00 0.00 0.00 0.00 0.00 0.00 0.00 0.00 0.00 0.00 0.00 0.00 0.00 0.00 0.00 0.00 0.00
0.00 0.00 0.00 0.00 0.00 0.00 0.00 0.00 0.00 0.00 0.00 0.00 0.00 0.00 0.00 0.00 0.00 0.00 0.00 0.00 0.00 0.00 0.00 0.00 0.00 0.00 0.00 0.00 0.00 0.00 0.00 0.00 0.00 0.00 0.00 0.00 0.00 0.00 0.00 0.00 0.00 0.00 0.00
MSLP
1016.52 1016.34 1016.16 1015.95 1015.69 1015.38 1015.01 1014.60 1014.15 1013.69 1013.21 1012.73 1012.26 1011.80 1011.36 1010.93 1010.53 1010.17 1009.87 1009.63 1009.48 1009.43 1009.48 1009.65 1009.93 1010.30 1010.77 1011.30 1011.87 1012.45 1013.04 1013.59 1014.11 1014.58 1014.99 1015.35 1015.67 1015.97 1016.24 1016.51 1016.78 1017.05 1017.32
1016.51 1016.37 1016.22 1016.04 1015.83 1015.58 1015.27 1014.93 1014.55 1014.14 1013.71 1013.27 1012.83 1012.38 1011.93 1011.49 1011.06 1010.66 1010.30 1010.00 1009.78 1009.64 1009.61 1009.68 1009.86 1010.15 1010.53 1010.99 1011.52 1012.08 1012.67 1013.26 1013.82 1014.35 1014.84 1015.28 1015.67 1016.02 1016.34 1016.63 1016.91 1017.18 1017.44
1016.54 1016.43 1016.31 1016.16 1015.98 1015.75 1015.49 1015.18 1014.84 1014.48 1014.09 1013.69 1013.28 1012.85 1012.42 1011.98 1011.55 1011.15 1010.77 1010.44 1010.18 1010.00 1009.90 1009.90 1009.99 1010.19 1010.48 1010.86 1011.32 1011.83 1012.39 1012.97 1013.56 1014.13 1014.67 1015.17 1015.62 1016.03 1016.41 1016.75 1017.06 1017.35 1017.63
1016.61 1016.52 1016.42 1016.28 1016.11 1015.89 1015.63 1015.34 1015.02 1014.68 1014.32 1013.94 1013.56 1013.16 1012.75 1012.35 1011.95 1011.56 1011.21 1010.89 1010.62 1010.42 1010.29 1010.23 1010.26 1010.37 1010.57 1010.86 1011.23 1011.67 1012.16 1012.70 1013.27 1013.85 1014.42 1014.96 1015.48 1015.96 1016.40 1016.81 1017.19 1017.54 1017.87
1016.71 1016.65 1016.55 1016.41 1016.22 1015.98 1015.71 1015.40 1015.08 1014.74 1014.40 1014.04 1013.68 1013.31 1012.95 1012.58 1012.22 1011.88 1011.56 1011.28 1011.04 1010.84 1010.70 1010.61 1010.58 1010.62 1010.74 1010.93 1011.19 1011.53 1011.94 1012.41 1012.93 1013.49 1014.06 1014.64 1015.21 1015.76 1016.28 1016.77 1017.24 1017.68 1018.10
1016.84 1016.79 1016.69 1016.53 1016.31 1016.04 1015.74 1015.42 1015.08 1014.73 1014.39 1014.04 1013.70 1013.36 1013.03 1012.70 1012.39 1012.10 1011.83 1011.59 1011.39 1011.21 1011.07 1010.97 1010.91 1010.89 1010.93 1011.02 1011.18 1011.42 1011.73 1012.11 1012.56 1013.07 1013.63 1014.22 1014.82 1015.43 1016.03 1016.62 1017.19 1017.73 1018.26
1016.98 1016.94 1016.83 1016.65 1016.40 1016.10 1015.77 1015.43 1015.07 1014.72 1014.37 1014.03 1013.70 1013.38 1013.07 1012.78 1012.50 1012.25 1012.03 1011.83 1011.66 1011.52 1011.39 1011.29 1011.21 1011.15 1011.12 1011.13 1011.20 1011.34 1011.54 1011.83 1012.20 1012.65 1013.17 1013.75 1014.37 1015.02 1015.69 1016.36 1017.03 1017.68 1018.32
1017.10 1017.07 1016.95 1016.76 1016.50 1016.18 1015.84 1015.48 1015.12 1014.77 1014.42 1014.09 1013.77 1013.45 1013.16 1012.88 1012.62 1012.39 1012.19 1012.02 1011.87 1011.75 1011.65 1011.55 1011.46 1011.38 1011.32 1011.28 1011.27 1011.33 1011.45 1011.65 1011.94 1012.32 1012.79 1013.34 1013.95 1014.62 1015.33 1016.06 1016.81 1017.55 1018.27
1017.17 1017.15 1017.03 1016.84 1016.59 1016.29 1015.96 1015.62 1015.27 1014.93 1014.60 1014.27 1013.96 1013.64 1013.34 1013.05 1012.79 1012.56 1012.36 1012.19 1012.06 1011.95 1011.86 1011.78 1011.70 1011.62 1011.54 1011.48 1011.44 1011.44 1011.51 1011.64 1011.86 1012.18 1012.59 1013.09 1013.67 1014.33 1015.04 1015.80 1016.58 1017.37 1018.15
1017.15 1017.14 1017.04 1016.87 1016.65 1016.39 1016.11 1015.81 1015.51 1015.21 1014.91 1014.60 1014.29 1013.97 1013.65 1013.34 1013.05 1012.79 1012.57 1012.39 1012.25 1012.15 1012.07 1012.00 1011.94 1011.88 1011.82 1011.77 1011.73 1011.72 1011.76 1011.86 1012.03 1012.29 1012.64 1013.09 1013.62 1014.24 1014.92 1015.65 1016.42 1017.21 1018.01
1017.01 1017.01 1016.94 1016.82 1016.65 1016.46 1016.25 1016.03 1015.80 1015.56 1015.30 1015.02 1014.72 1014.40 1014.07 1013.73 1013.40 1013.11 1012.85 1012.64 1012.48 1012.36 1012.29 1012.24 1012.21 1012.19 1012.17 1012.15 1012.14 1012.16 1012.20 1012.29 1012.45 1012.67 1012.98 1013.37 1013.84 1014.39 1015.01 1015.68 1016.40 1017.15 1017.90
1016.74 1016.75 1016.72 1016.65 1016.56 1016.45 1016.33 1016.21 1016.07 1015.91 1015.71 1015.48 1015.20 1014.89 1014.54 1014.18 1013.82 1013.48 1013.18 1012.94 1012.75 1012.63 1012.55 1012.52 1012.52 1012.54 1012.57 1012.61 1012.66 1012.72 1012.80 1012.92 1013.08 1013.29 1013.57 1013.91 1014.32 1014.80 1015.33 1015.92 1016.55 1017.21 1017.89
1016.35 1016.38 1016.38 1016.37 1016.36 1016.34 1016.32 1016.29 1016.25 1016.18 1016.06 1015.88 1015.65 1015.35 1015.01 1014.64 1014.26 1013.90 1013.57 1013.29 1013.09 1012.95 1012.87 1012.85 1012.87 1012.93 1013.01 1013.11 1013.22 1013.34 1013.47 1013.63 1013.82 1014.05 1014.31 1014.63 1014.98 1015.39 1015.84 1016.34 1016.87 1017.43 1018.01
1015.88 1015.92 1015.96 1016.00 1016.05 1016.11 1016.19 1016.25 1016.30 1016.31 1016.27 1016.16 1015.97 1015.72 1015.40 1015.05 1014.67 1014.31 1013.97 1013.68 1013.46 1013.31 1013.23 1013.21 1013.25 1013.33 1013.45 1013.60 1013.76 1013.94 1014.13 1014.35 1014.58 1014.82 1015.10 1015.40 1015.73 1016.09 1016.47 1016.88 1017.32 1017.78 1018.25
1015.37 1015.42 1015.48 1015.56 1015.66 1015.79 1015.92 1016.06 1016.18 1016.26 1016.29 1016.24 1016.12 1015.92 1015.66 1015.35 1015.01 1014.67 1014.35 1014.07 1013.86 1013.70 1013.62 1013.60 1013.64 1013.73 1013.86 1014.03 1014.23 1014.45 1014.69 1014.95 1015.22 1015.51 1015.81 1016.12 1016.44 1016.77 1017.11 1017.47 1017.83 1018.21 1018.59
1014.86 1014.92 1015.00 1015.10 1015.23 1015.39 1015.57 1015.74 1015.90 1016.03 1016.11 1016.12 1016.06 1015.93 1015.73 1015.49 1015.22 1014.94 1014.67 1014.43 1014.24 1014.10 1014.01 1013.98 1014.01 1014.09 1014.22 1014.38 1014.59 1014.83 1015.09 1015.38 1015.69 1016.01 1016.35 1016.68 1017.02 1017.35 1017.68 1018.00 1018.33 1018.65 1018.98
1014.37 1014.45 1014.55 1014.66 1014.80 1014.97 1015.15 1015.33 1015.51 1015.65 1015.76 1015.81 1015.80 1015.74 1015.62 1015.47 1015.28 1015.09 1014.90 1014.72 1014.57 1014.45 1014.38 1014.34 1014.35 1014.40 1014.50 1014.64 1014.83 1015.06 1015.33 1015.63 1015.96 1016.31 1016.67 1017.03 1017.39 1017.75 1018.08 1018.41 1018.72 1019.03 1019.32
1013.89 1014.00 1014.12 1014.24 1014.39 1014.55 1014.71 1014.88 1015.03 1015.17 1015.28 1015.35 1015.39 1015.39 1015.35 1015.28 1015.19 1015.10 1014.99 1014.90 1014.81 1014.74 1014.68 1014.64 1014.64 1014.66 1014.72 1014.82 1014.97 1015.17 1015.41 1015.70 1016.03 1016.39 1016.77 1017.16 1017.55 1017.93 1018.30 1018.64 1018.97 1019.27 1019.57
1013.37 1013.54 1013.69 1013.85 1013.99 1014.14 1014.28 1014.41 1014.54 1014.65 1014.74 1014.81 1014.87 1014.91 1014.93 1014.95 1014.96 1014.96 1014.95 1014.95 1014.93 1014.91 1014.89 1014.86 1014.84 1014.84 1014.87 1014.93 1015.03 1015.19 1015.40 1015.66 1015.97 1016.33 1016.71 1017.11 1017.52 1017.92 1018.31 1018.68 1019.03 1019.35 1019.66
1012.77 1013.02 1013.23 1013.43 1013.60 1013.74 1013.86 1013.96 1014.05 1014.12 1014.18 1014.23 1014.29 1014.35 1014.43 1014.51 1014.59 1014.68 1014.77 1014.84 1014.90 1014.94 1014.96 1014.97 1014.96 1014.95 1014.95 1014.98 1015.04 1015.16 1015.33 1015.56 1015.84 1016.17 1016.53 1016.93 1017.33 1017.74 1018.14 1018.53 1018.90 1019.25 1019.58
1012.05 1012.39 1012.69 1012.95 1013.16 1013.32 1013.44 1013.52 1013.57 1013.61 1013.63 1013.66 1013.71 1013.77 1013.87 1013.99 1014.13 1014.28 1014.44 1014.59 1014.72 1014.82 1014.90 1014.94 1014.95 1014.96 1014.96 1014.97 1015.02 1015.11 1015.24 1015.44 1015.68 1015.98 1016.31 1016.68 1017.07 1017.46 1017.85 1018.24 1018.62 1018.99 1019.34
1011.19 1011.63 1012.03 1012.37 1012.64 1012.84 1012.98 1013.07 1013.11 1013.12 1013.11 1013.12 1013.14 1013.20 1013.29 1013.43 1013.59 1013.79 1013.99 1014.19 1014.38 1014.55 1014.67 1014.76 1014.82 1014.86 1014.88 1014.91 1014.96 1015.04 1015.16 1015.33 1015.54 1015.80 1016.09 1016.42 1016.77 1017.13 1017.50 1017.87 1018.23 1018.60 1018.96
1010.19 1010.72 1011.21 1011.64 1011.99 1012.25 1012.44 1012.55 1012.60 1012.62 1012.60 1012.59 1012.60 1012.64 1012.72 1012.85 1013.02 1013.22 1013.45 1013.69 1013.91 1014.11 1014.29 1014.43 1014.54 1014.63 1014.70 1014.76 1014.84 1014.93 1015.06 1015.22 1015.41 1015.64 1015.90 1016.18 1016.48 1016.80 1017.12 1017.46 1017.80 1018.15 1018.50
1009.09 1009.69 1010.25 1010.75 1011.18 1011.52 1011.76 1011.93 1012.02 1012.06 1012.06 1012.05 1012.06 1012.08 1012.15 1012.26 1012.42 1012.62 1012.84 1013.08 1013.33 1013.56 1013.77 1013.96 1014.12 1014.27 1014.39 1014.51 1014.63 1014.77 1014.92 1015.09 1015.28 1015.50 1015.73 1015.97 1016.23 1016.50 1016.78 1017.06 1017.36 1017.68 1018.01
1007.96 1008.57 1009.16 1009.72 1010.21 1010.61 1010.93 1011.16 1011.31 1011.40 1011.44 1011.45 1011.47 1011.50 1011.56 1011.66 1011.80 1011.97 1012.18 1012.42 1012.66 1012.90 1013.14 1013.36 1013.57 1013.77 1013.95 1014.13 1014.31 1014.50 1014.70 1014.90 1015.11 1015.33 1015.55 1015.78 1016.00 1016.23 1016.47 1016.71 1016.97 1017.25 1017.55
1006.87 1007.43 1008.01 1008.58 1009.09 1009.55 1009.92 1010.22 1010.43 1010.58 1010.68 1010.75 1010.79 1010.84 1010.91 1011.00 1011.13 1011.29 1011.48 1011.69 1011.92 1012.16 1012.41 1012.65 1012.90 1013.14 1013.38 1013.61 1013.86 1014.11 1014.35 1014.60 1014.85 1015.10 1015.33 1015.56 1015.77 1015.99 1016.19 1016.41 1016.63 1016.87 1017.14
Thickness
5638 5636 5635 5634 5634 5634 5634 5635 5637 5639 5642 5644 5646 5650 5654 5657 5662 5667 5672 5676 5680 5684 5689 5690 5693 5696 5697 5698 5699 5699 5700 5700 5697 5697 5700 5703 5704 5705 5705 5704 5703 5701 5699
5640 5637 5635 5633 5633 5632 5632 5633 5634 5635 5637 5638 5640 5643 5646 5649 5654 5658 5663 5667 5671 5676 5680 5682 5685 5689 5690 5692 5693 5694 5695 5696 5694 5692 5693 5695 5696 5698 5698 5697 5696 5694 5692
5641 5638 5636 5633 5632 5631 5630 5631 5631 5632 5632 5634 5636 5637 5640 5643 5647 5651 5655 5659 5663 5667 5671 5674 5678 5681 5683 5685 5687 5688 5689 5690 5690 5689 5688 5688 5689 5690 5689 5688 5687 5686 5684
5643 5639 5636 5633 5632 5630 5630 5630 5629 5629 5630 5630 5631 5633 5635 5638 5641 5644 5648 5652 5655 5659 5663 5666 5669 5673 5675 5677 5679 5681 5682 5682 5683 5683 5682 5681 5681 5682 5682 5679 5677 5676 5675
5644 5640 5637 5634 5632 5631 5629 5629 5628 5627 5627 5627 5627 5628 5630 5633 5636 5637 5640 5643 5646 5649 5654 5657 5661 5665 5668 5671 5673 5674 5675 5676 5676 5675 5674 5674 5674 5674 5673 5673 5670 5667 5664
5645 5641 5638 5636 5633 5631 5629 5628 5627 5626 5625 5624 5624 5624 5625 5627 5630 5632 5634 5635 5637 5640 5644 5647 5652 5655 5660 5664 5666 5669 5671 5671 5670 5669 5669 5669 5669 5669 5668 5667 5664 5661 5656
5647 5643 5639 5636 5633 5631 5629 5627 5625 5624 5622 5621 5620 5620 5620 5622 5625 5626 5628 5628 5629 5631 5634 5638 5642 5646 5650 5654 5658 5661 5664 5666 5668 5668 5666 5665 5665 5666 5664 5661 5659 5656 5653
5649 5644 5641 5637 5634 5631 5629 5626 5624 5623 5621 5619 5617 5616 5615 5616 5619 5620 5621 5621 5622 5624 5626 5629 5633 5637 5642 5646 5649 5652 5655 5658 5662 5664 5664 5664 5664 5663 5662 5659 5655 5650 5646
5651 5647 5643 5639 5635 5632 5629 5626 5624 5621 5619 5617 5614 5612 5610 5609 5612 5614 5615 5614 5615 5616 5619 5623 5626 5630 5636 5640 5643 5645 5647 5649 5654 5658 5659 5660 5660 5659 5657 5653 5648 5644 5639
5654 5650 5646 5642 5637 5633 5630 5627 5624 5620 5617 5615 5612 5608 5605 5603 5605 5607 5608 5607 5607 5609 5612 5616 5620 5625 5630 5633 5636 5639 5641 5643 5647 5650 5651 5653 5653 5652 5652 5651 5648 5643 5637
5658 5654 5649 5645 5640 5636 5632 5628 5624 5620 5616 5613 5609 5605 5601 5599 5599 5600 5602 5601 5601 5603 5606 5610 5614 5620 5624 5628 5632 5634 5636 5639 5641 5643 5643 5644 5644 5644 5644 5644 5644 5643 5638
5661 5657 5652 5648 5644 5640 5633 5629 5624 5619 5615 5610 5606 5602 5599 5596 5595 5596 5598 5598 5599 5600 5602 5605 5610 5615 5619 5623 5627 5630 5632 5634 5635 5636 5636 5636 5636 5637 5637 5638 5637 5637 5637
5664 5659 5655 5651 5646 5642 5636 5630 5625 5620 5615 5610 5606 5601 5598 5595 5595 5596 5596 5597 5598 5599 5600 5604 5608 5612 5615 5619 5623 5625 5628 5629 5630 5630 5629 5629 5631 5632 5632 5632 5631 5631 5631
5667 5663 5658 5653 5649 5644 5639 5634 5628 5623 5618 5613 5609 5604 5600 5598 5596 5596 5596 5596 5598 5599 5600 5603 5606 5609 5612 5616 5618 5620 5622 5625 5626 5626 5625 5625 5626 5627 5627 5628 5626 5625 5623
5671 5667 5663 5658 5653 5648 5643 5637 5633 5628 5622 5618 5613 5608 5604 5602 5600 5600 5599 5599 5599 5600 5601 5602 5604 5606 5609 5612 5614 5617 5618 5620 5621 5621 5621 5621 5622 5622 5622 5623 5622 5622 5619
5675 5671 5666 5661 5657 5651 5646 5641 5637 5633 5630 5625 5620 5615 5611 5608 5606 5605 5605 5605 5605 5605 5605 5604 5604 5606 5608 5610 5612 5614 5616 5617 5618 5619 5619 5620 5620 5620 5619 5619 5619 5618 5615
5679 5675 5671 5666 5661 5656 5651 5646 5641 5638 5634 5631 5626 5622 5619 5615 5613 5611 5611 5611 5611 5611 5608 5607 5607 5608 5610 5612 5613 5615 5616 5617 5618 5619 5619 5618 5618 5618 5617 5616 5615 5613 5611
5683 5680 5675 5670 5666 5661 5657 5652 5648 5643 5638 5635 5633 5629 5626 5622 5620 5618 5617 5616 5614 5614 5613 5612 5612 5613 5614 5615 5616 5616 5617 5618 5618 5618 5618 5618 5618 5617 5616 5614 5613 5612 5610
5685 5681 5678 5674 5670 5666 5662 5658 5654 5650 5645 5641 5637 5634 5632 5629 5626 5624 5623 5620 5618 5617 5617 5617 5617 5618 5618 5619 5619 5619 5620 5620 5620 5619 5619 5619 5618 5617 5616 5614 5613 5612 5610
5687 5684 5680 5675 5672 5668 5665 5662 5658 5654 5650 5646 5642 5640 5637 5633 5630 5629 5627 5625 5623 5622 5622 5622 5622 5622 5622 5622 5622 5622 5622 5622 5621 5621 5620 5620 5619 5618 5617 5615 5613 5612 5610
5687 5684 5682 5677 5673 5670 5668 5665 5662 5659 5656 5652 5650 5648 5644 5639 5636 5634 5632 5630 5629 5628 5627 5627 5626 5626 5626 5626 5626 5626 5625 5624 5624 5623 5623 5622 5621 5619 5618 5617 5615 5613 5612
5687 5683 5680 5677 5674 5671 5669 5668 5665 5663 5660 5658 5655 5653 5650 5645 5642 5639 5637 5636 5635 5634 5633 5632 5631 5630 5630 5630 5629 5629 5628 5627 5627 5626 5625 5624 5623 5621 5619 5617 5615 5614 5612
5686 5682 5679 5676 5674 5673 5670 5668 5666 5665 5663 5661 5659 5655 5652 5649 5647 5645 5643 5642 5640 5638 5637 5636 5635 5633 5633 5633 5633 5632 5631 5631 5630 5630 5627 5626 5624 5622 5621 5619 5617 5614 5613
5686 5682 5678 5675 5672 5670 5669 5668 5667 5666 5665 5663 5661 5659 5656 5654 5652 5651 5649 5647 5645 5643 5641 5640 5639 5638 5636 5635 5635 5634 5634 5633 5632 5631 5630 5628 5626 5624 5622 5620 5618 5617 5615
5684 5680 5677 5674 5671 5669 5667 5666 5666 5665 5665 5664 5663 5661 5660 5658 5656 5654 5653 5651 5648 5646 5645 5643 5642 5640 5639 5638 5637 5636 5635 5634 5633 5632 5630 5629 5627 5625 5623 5621 5619 5617 5614
5681 5678 5676 5672 5670 5667 5666 5665 5664 5664 5663 5663 5663 5662 5661 5660 5658 5657 5655 5653 5650 5649 5647 5645 5644 5643 5641 5640 5638 5637 5635 5633 5632 5631 5629 5628 5626 5624 5622 5620 5619 5616 5614